Portada
METAR-TAF:

METAR-TAF

Aeroports :

Aeroport de Sania Ramel

Tetuan, Marroc

latitud: 35-35N, longitud: 005-20W, altitud: 10 m

Observació

L'informe es va fer fa 27 minuts, a les 18:00 UTC
Vent 1 kt del Oest/Nord-Oest
Temperatura 18°C
Humitat 68%
Pressió 1011 hPa
Visibilitat 10 km o més
Escasses núvols a una alçada de 2300 ft
Cel ennuvolat a una alçada de 5000 ft

METAR: GMTN 191800Z 29001KT 9999 FEW023 BKN050 18/12 Q1011 NOSIG

Hora: 19:27 (18:27 UTC)


TAF: manca

Observacions i pronòstics meteorològics de més de 4000 aeroports (METAR i TAF).

Les estacions disponibles són els punts grocs i vermells al mapa.

Posi el ratolí al punt desitjat per veure el nom de l'estació.

Feu clic per veure les observacions i els pronòstics meteorològics.

Per canviar el mapa: feu clic els botons verds amb una creu de color negre per apropar; al botó verd amb un guió per allunyar la imatge; o en les fletxes verdes per a mapes adjacents.


METAR-TAF: